TimeEDT,TemperatureF,Dew PointF,Humidity,Sea Level PressureIn,VisibilityMPH,Wind Direction,Wind SpeedMPH,Gust SpeedMPH,PrecipitationIn,Events,Conditions,WindDirDegrees,DateUTC
12:01 AM,66.2,62.6,88,29.74,10.0,West,15.0,29.9,0.00,Rain,Light Rain,260,2013-10-07 04:01:00
12:08 AM,64.4,60.8,88,29.74,10.0,West,12.7,23.0,0.00,Rain,Light Rain,260,2013-10-07 04:08:00
12:25 AM,64.4,60.8,88,29.74,10.0,West,15.0,26.5,0.00,,Overcast,270,2013-10-07 04:25:00
12:51 AM,63.0,57.9,84,29.73,10.0,West,11.5,20.7,0.00,,Overcast,270,2013-10-07 04:51:00
1:51 AM,60.1,55.0,83,29.71,10.0,SSW,4.6,-,N/A,,Overcast,210,2013-10-07 05:51:00
2:51 AM,59.0,55.9,90,29.71,9.0,SW,6.9,-,0.04,Rain,Light Rain,230,2013-10-07 06:51:00
3:46 AM,57.2,55.4,94,29.72,2.5,SW,5.8,-,0.13,Rain,Heavy Rain,220,2013-10-07 07:46:00
3:51 AM,57.9,55.9,93,29.72,3.0,SW,8.1,-,0.15,Rain,Rain,230,2013-10-07 07:51:00
4:05 AM,57.2,55.4,94,29.73,2.0,SW,10.4,-,0.09,Rain,Heavy Rain,230,2013-10-07 08:05:00
4:10 AM,57.2,55.4,94,29.72,3.0,SW,10.4,-,0.11,Rain,Rain,220,2013-10-07 08:10:00
4:51 AM,57.0,54.0,89,29.72,4.0,SW,9.2,-,0.27,Rain,Rain,230,2013-10-07 08:51:00
5:15 AM,57.2,53.6,88,29.73,2.5,SW,4.6,-,0.07,Rain,Heavy Rain,230,2013-10-07 09:15:00
5:24 AM,55.4,53.6,94,29.71,2.0,Calm,Calm,-,0.12,Rain,Rain,0,2013-10-07 09:24:00
5:33 AM,55.4,53.6,94,29.71,4.0,Calm,Calm,-,0.13,Rain,Rain,0,2013-10-07 09:33:00
5:47 AM,57.2,53.6,88,29.72,4.0,WSW,4.6,-,0.17,Rain,Rain,240,2013-10-07 09:47:00
5:51 AM,55.9,54.0,93,29.71,3.0,WSW,5.8,-,0.17,Rain,Rain,240,2013-10-07 09:51:00
6:12 AM,55.4,53.6,94,29.74,4.0,WSW,8.1,-,0.08,Rain,Rain,240,2013-10-07 10:12:00
6:26 AM,55.4,53.6,94,29.72,4.0,SW,8.1,-,0.12,Rain,Rain,230,2013-10-07 10:26:00
6:42 AM,55.4,53.6,94,29.74,8.0,SW,10.4,-,0.14,Rain,Light Rain,230,2013-10-07 10:42:00
6:51 AM,55.9,53.1,90,29.73,9.0,SW,11.5,-,0.14,Rain,Light Rain,220,2013-10-07 10:51:00
6:59 AM,55.4,53.6,94,29.74,8.0,SW,12.7,19.6,0.01,Rain,Light Rain,220,2013-10-07 10:59:00
7:21 AM,55.4,51.8,88,29.74,10.0,SW,10.4,-,0.03,Rain,Light Rain,220,2013-10-07 11:21:00
7:51 AM,55.0,52.0,89,29.75,8.0,SW,12.7,18.4,0.05,Rain,Rain,220,2013-10-07 11:51:00
8:03 AM,55.4,50.0,82,29.76,10.0,SW,16.1,21.9,0.00,Rain,Light Rain,220,2013-10-07 12:03:00
8:51 AM,54.0,48.0,80,29.77,10.0,SW,18.4,25.3,0.00,,Overcast,230,2013-10-07 12:51:00
9:51 AM,52.0,44.1,74,29.80,10.0,SW,17.3,25.3,N/A,,Scattered Clouds,220,2013-10-07 13:51:00
10:51 AM,54.0,42.1,64,29.80,10.0,SW,17.3,23.0,N/A,,Clear,220,2013-10-07 14:51:00
11:51 AM,55.0,41.0,59,29.81,10.0,WSW,16.1,23.0,N/A,,Overcast,240,2013-10-07 15:51:00
12:51 PM,55.9,39.9,55,29.82,10.0,WSW,17.3,26.5,N/A,,Mostly Cloudy,240,2013-10-07 16:51:00
1:51 PM,57.0,39.9,53,29.82,10.0,WSW,15.0,25.3,N/A,,Overcast,240,2013-10-07 17:51:00
2:51 PM,55.9,39.0,53,29.84,10.0,SW,18.4,31.1,N/A,,Overcast,230,2013-10-07 18:51:00
3:51 PM,55.9,39.9,55,29.86,10.0,SW,15.0,24.2,N/A,,Overcast,230,2013-10-07 19:51:00
4:51 PM,57.0,42.1,57,29.88,10.0,SW,16.1,24.2,N/A,,Overcast,220,2013-10-07 20:51:00
5:51 PM,55.9,42.1,60,29.91,10.0,SW,11.5,-,N/A,,Overcast,220,2013-10-07 21:51:00
6:51 PM,53.1,46.9,80,29.94,7.0,SW,16.1,23.0,0.01,Rain,Light Rain,220,2013-10-07 22:51:00
7:04 PM,53.6,46.4,77,29.94,10.0,SSW,11.5,-,0.00,Rain,Light Rain,210,2013-10-07 23:04:00
7:51 PM,52.0,48.0,86,29.98,7.0,South,8.1,-,0.08,Rain,Light Rain,190,2013-10-07 23:51:00
8:51 PM,53.1,48.0,83,30.01,10.0,SW,12.7,-,0.01,Rain,Light Rain,220,2013-10-08 00:51:00
9:36 PM,53.6,48.2,82,30.04,10.0,Calm,Calm,-,0.00,,Overcast,0,2013-10-08 01:36:00
9:51 PM,57.0,44.1,62,30.05,10.0,WNW,8.1,-,0.00,,Overcast,300,2013-10-08 01:51:00
10:51 PM,51.1,48.0,89,30.08,10.0,South,3.5,-,N/A,,Mostly Cloudy,170,2013-10-08 02:51:00
11:51 PM,51.1,48.0,89,30.11,10.0,SSW,4.6,-,N/A,,Scattered Clouds,210,2013-10-08 03:51:00